Weather History for KMFD - October, 2012

Change the Weather History Date:

Tuesday, October 2, 2012

  Actual Average Record
Temperature  
Mean Temperature 62 °F 56 °F  
Max Temperature 71 °F 67 °F 86 °F (1927)
Min Temperature 52 °F 46 °F 26 °F (1947)
Degree Days  
Heating Degree Days 3 9  
Month to date heating degree days 16 18  
Since 1 July heating degree days 177 168  
Cooling Degree Days 0 1  
Month to date cooling degree days 0 2  
Year to date cooling degree days 947 627  
Growing Degree Days 11 (Base 50)    
Moisture  
Dew Point 58 °F    
Average Humidity 89    
Maximum Humidity 100    
Minimum Humidity 78    
Precipitation  
Precipitation 1.11 in 0.10 in 1.12 in (1969)
Month to date precipitation 1.57 0.19  
Year to date precipitation 29.75 34.34  
Snow  
Snow 0.00 in 0.00 in - ()
Month to date snowfall 0.0 0.0  
Since 1 July snowfall 0.0 0.0  
Since 1 September snowfall 0.0 0.0  
Snow Depth 0.00 in    
Sea Level Pressure  
Sea Level Pressure 29.83 in    
Wind  
Wind Speed 6 mph (ENE)    
Max Wind Speed 13 mph    
Max Gust Speed 15 mph    
Visibility 4 miles    
Events Fog , Rain    
T = Trace of Precipitation, MM = Missing Value Source: NWS Daily Summary

Daily Weather History Graph

Daily Weather History Graph

Search for Another Location

Airport or City:

Trip Planner

Search our weather history database for the weather conditions in past years. The results will help you decide how hot, cold, wet, or windy it might be!

Date:

Astronomy

Oct. 02, 2012 Rise Set
Actual Time 7:28 AM EDT 7:09 PM EDT
Civil Twilight 7:00 AM EDT 7:36 PM EDT
Nautical Twilight 6:29 AM EDT 8:08 PM EDT
Astronomical Twilight 5:56 AM EDT 8:40 PM EDT
Moon 8:20 PM EDT 9:55 AM EDT
Length of Visible Light 12h 36m
Length of Day
11h 41m
Waning Gibbous, 94% of the Moon is Illuminated
Oct 2
Waning Gibbous
Oct 8
Last Quarter
Oct 15
New
Oct 21
First Quarter
Oct 29
Full

Hourly Weather History & Observations

Time (EDT) Temp. Dew Point Humidity Pressure Visibility Wind Dir Wind Speed Gust Speed Precip Events Conditions
12:11 AM 51.8 °F 51.8 °F 100% 29.81 in 2.5 mi NE 8.1 mph - 0.15 in Rain Heavy Rain
12:18 AM 51.8 °F 51.8 °F 100% 29.81 in 3.0 mi East 8.1 mph - 0.20 in Rain Rain
12:35 AM 51.8 °F 51.8 °F 100% 29.81 in 4.0 mi ENE 10.4 mph - 0.24 in Rain Light Rain
12:52 AM 52.0 °F 52.0 °F 100% 29.80 in 6.0 mi NE 6.9 mph - 0.25 in   Overcast
1:12 AM 51.8 °F 51.8 °F 100% 29.80 in 5.0 mi North 6.9 mph - 0.00 in Rain Light Rain
1:42 AM 51.8 °F 51.8 °F 100% 29.80 in 2.5 mi NE 5.8 mph - 0.06 in Rain Light Rain
1:52 AM 52.0 °F 52.0 °F 100% 29.79 in 2.5 mi NNE 8.1 mph - 0.08 in Rain Light Rain
2:10 AM 51.8 °F 51.8 °F 100% 29.80 in 3.0 mi NNE 6.9 mph - 0.03 in Rain Light Rain
2:29 AM 51.8 °F 51.8 °F 100% 29.79 in 4.0 mi NE 9.2 mph - 0.03 in Rain Light Rain
2:52 AM 53.1 °F 53.1 °F 100% 29.79 in 4.0 mi NNE 5.8 mph - 0.04 in Rain Light Rain
3:52 AM 53.1 °F 53.1 °F 100% 29.77 in 4.0 mi NE 8.1 mph - 0.03 in Rain Light Rain
4:52 AM 54.0 °F 54.0 °F 100% 29.77 in 5.0 mi ENE 6.9 mph - 0.00 in   Overcast
5:52 AM 54.0 °F 54.0 °F 100% 29.78 in 5.0 mi East 4.6 mph - N/A   Overcast
6:21 AM 53.6 °F 53.6 °F 100% 29.78 in 2.5 mi East 5.8 mph - N/A   Overcast
6:37 AM 53.6 °F 53.6 °F 100% 29.79 in 4.0 mi East 6.9 mph - N/A   Overcast
6:52 AM 55.0 °F 55.0 °F 100% 29.78 in 4.0 mi East 5.8 mph - N/A   Overcast
7:39 AM 55.4 °F 55.4 °F 100% 29.80 in 3.0 mi East 4.6 mph - N/A   Overcast
7:50 AM 55.4 °F 55.4 °F 100% 29.80 in 2.0 mi East 4.6 mph - N/A   Overcast
7:52 AM 55.0 °F 55.0 °F 100% 29.81 in 2.0 mi East 5.8 mph - N/A   Overcast
8:25 AM 55.4 °F 55.4 °F 100% 29.82 in 3.0 mi East 5.8 mph - N/A   Overcast
8:37 AM 55.4 °F 55.4 °F 100% 29.82 in 2.5 mi East 3.5 mph - N/A   Overcast
8:48 AM 55.4 °F 55.4 °F 100% 29.83 in 3.0 mi East 4.6 mph - N/A   Overcast
8:52 AM 55.4 °F 55.4 °F 100% 29.83 in 2.5 mi East 5.8 mph - N/A   Overcast
9:17 AM 55.4 °F 55.4 °F 100% 29.83 in 3.0 mi East 4.6 mph - N/A   Overcast
9:40 AM 57.2 °F 57.2 °F 100% 29.83 in 2.5 mi East 4.6 mph - N/A   Overcast
9:47 AM 57.2 °F 57.2 °F 100% 29.83 in 2.5 mi East 4.6 mph - N/A   Overcast
9:52 AM 57.0 °F 57.0 °F 100% 29.83 in 2.5 mi East 4.6 mph - N/A   Overcast
10:11 AM 57.2 °F 57.2 °F 100% 29.83 in 3.0 mi East 3.5 mph - N/A   Overcast
10:52 AM 60.1 °F 59.0 °F 96% 29.83 in 4.0 mi ESE 4.6 mph - N/A   Overcast
11:17 AM 60.8 °F 59.0 °F 94% 29.84 in 5.0 mi ESE 3.5 mph - N/A   Overcast
11:52 AM 62.1 °F 60.1 °F 93% 29.83 in 7.0 mi East 5.8 mph - N/A   Overcast
12:52 PM 66.0 °F 62.1 °F 87% 29.83 in 9.0 mi East 4.6 mph - N/A   Overcast
1:41 PM 69.8 °F 62.6 °F 78% 29.82 in 10.0 mi Calm Calm - N/A   Overcast
1:52 PM 69.1 °F 63.0 °F 81% 29.81 in 10.0 mi NE 4.6 mph - N/A   Overcast
2:41 PM 69.8 °F 62.6 °F 78% 29.81 in 10.0 mi North 4.6 mph - N/A   Overcast
2:52 PM 70.0 °F 64.0 °F 81% 29.80 in 10.0 mi Variable 3.5 mph - N/A   Overcast
3:52 PM 71.1 °F 64.0 °F 78% 29.79 in 10.0 mi North 9.2 mph - N/A   Overcast
4:52 PM 69.1 °F 64.0 °F 84% 29.81 in 10.0 mi NNE 4.6 mph - N/A   Overcast
5:52 PM 68.0 °F 63.0 °F 84% 29.81 in 10.0 mi NNE 6.9 mph - N/A   Overcast
6:22 PM 66.2 °F 62.6 °F 88% 29.82 in 10.0 mi NNE 8.1 mph - N/A   Scattered Clouds
6:52 PM 64.9 °F 63.0 °F 93% 29.83 in 10.0 mi NNE 8.1 mph - N/A   Scattered Clouds
7:41 PM 64.4 °F 62.6 °F 94% 29.85 in 9.0 mi NNE 5.8 mph - N/A   Overcast
7:52 PM 64.9 °F 63.0 °F 93% 29.84 in 9.0 mi NNE 6.9 mph - N/A   Overcast
8:52 PM 64.0 °F 63.0 °F 96% 29.86 in 5.0 mi North 5.8 mph - 0.00 in Rain Light Rain
9:09 PM 64.4 °F 62.6 °F 94% 29.87 in 2.5 mi North 5.8 mph - 0.03 in Rain Rain
9:38 PM 62.6 °F 62.6 °F 100% 29.88 in 1.0 mi Calm Calm - 0.21 in Rain Heavy Rain
9:52 PM 62.6 °F 62.6 °F 100% 29.88 in 1.0 mi NE 6.9 mph - N/A Rain Heavy Rain
10:07 PM 62.6 °F 62.6 °F 100% 29.88 in 1.2 mi NE 8.1 mph - 0.24 in Rain Rain
10:10 PM 62.6 °F 62.6 °F 100% 29.88 in 2.0 mi ENE 9.2 mph - 0.25 in Rain Rain
10:22 PM 64.4 °F 64.4 °F 100% 29.88 in 3.0 mi ENE 9.2 mph - 0.31 in Rain Rain
10:52 PM 64.0 °F 64.0 °F 100% 29.87 in 8.0 mi West 6.9 mph - 0.33 in   Overcast
11:11 PM 62.6 °F 62.6 °F 100% 29.89 in 2.5 mi West 3.5 mph - N/A   Scattered Clouds
11:16 PM 62.6 °F 62.6 °F 100% 29.89 in 1.0 mi Calm Calm - N/A   Mostly Cloudy
11:23 PM 62.6 °F 62.6 °F 100% 29.89 in 0.5 mi West 3.5 mph - N/A Fog Fog
11:30 PM 62.6 °F 62.6 °F 100% 29.89 in 0.2 mi Calm Calm - N/A Fog Fog
11:52 PM 62.1 °F 62.1 °F 100% 29.88 in 0.2 mi Calm Calm - N/A Fog Fog